QPF
0.00 0.00 0.00 0.00 0.00 0.00 0.00 0.00 0.00 0.00 0.00 0.00 0.00 0.00 0.00 0.00 0.00 0.00 0.00 0.00 0.00 0.00 0.00 0.00 0.00 0.00 0.00 0.00 0.00 0.00 0.00 0.00 0.00 0.00 0.00 0.00 0.00 0.00 0.00 0.00 0.00 0.00 0.00
0.00 0.00 0.00 0.00 0.00 0.00 0.00 0.00 0.00 0.00 0.00 0.00 0.00 0.00 0.00 0.00 0.00 0.00 0.00 0.00 0.00 0.00 0.00 0.00 0.00 0.00 0.00 0.00 0.00 0.00 0.00 0.00 0.00 0.00 0.00 0.00 0.00 0.00 0.00 0.00 0.00 0.00 0.00
0.00 0.00 0.00 0.00 0.00 0.00 0.00 0.00 0.00 0.00 0.00 0.00 0.00 0.00 0.00 0.00 0.00 0.00 0.00 0.00 0.00 0.00 0.00 0.00 0.00 0.00 0.00 0.00 0.00 0.00 0.00 0.00 0.00 0.00 0.00 0.00 0.00 0.00 0.00 0.00 0.00 0.00 0.00
0.00 0.00 0.00 0.00 0.00 0.00 0.00 0.00 0.00 0.00 0.00 0.00 0.00 0.00 0.00 0.00 0.00 0.00 0.00 0.00 0.00 0.00 0.00 0.00 0.00 0.00 0.00 0.00 0.00 0.00 0.00 0.00 0.00 0.00 0.00 0.00 0.00 0.00 0.00 0.00 0.00 0.00 0.00
0.00 0.00 0.00 0.00 0.00 0.00 0.00 0.00 0.00 0.00 0.00 0.00 0.00 0.00 0.00 0.00 0.00 0.00 0.00 0.00 0.00 0.00 0.00 0.00 0.00 0.00 0.00 0.00 0.00 0.00 0.00 0.00 0.00 0.00 0.00 0.00 0.00 0.00 0.00 0.00 0.00 0.00 0.00
0.00 0.00 0.00 0.00 0.00 0.00 0.00 0.00 0.00 0.00 0.00 0.00 0.00 0.00 0.00 0.00 0.00 0.00 0.00 0.00 0.00 0.00 0.00 0.00 0.00 0.00 0.00 0.00 0.00 0.00 0.00 0.00 0.00 0.00 0.00 0.00 0.00 0.00 0.00 0.00 0.00 0.00 0.00
0.00 0.00 0.00 0.00 0.00 0.00 0.00 0.00 0.00 0.00 0.00 0.00 0.00 0.00 0.00 0.00 0.00 0.00 0.00 0.00 0.00 0.00 0.00 0.00 0.00 0.00 0.00 0.00 0.00 0.00 0.00 0.00 0.00 0.00 0.00 0.00 0.00 0.00 0.00 0.00 0.00 0.00 0.00
0.00 0.00 0.00 0.00 0.00 0.00 0.00 0.00 0.00 0.00 0.00 0.00 0.00 0.00 0.00 0.00 0.00 0.00 0.00 0.00 0.00 0.00 0.00 0.00 0.00 0.00 0.00 0.00 0.00 0.01 0.01 0.00 0.00 0.00 0.00 0.00 0.00 0.00 0.00 0.00 0.00 0.00 0.00
0.00 0.00 0.00 0.00 0.00 0.00 0.00 0.00 0.00 0.00 0.00 0.00 0.00 0.00 0.00 0.00 0.00 0.00 0.00 0.00 0.00 0.00 0.00 0.00 0.00 0.00 0.00 0.02 0.02 0.01 0.00 0.00 0.00 0.00 0.00 0.00 0.00 0.00 0.00 0.00 0.00 0.00 0.00
0.00 0.00 0.00 0.00 0.00 0.00 0.00 0.00 0.00 0.00 0.00 0.00 0.00 0.00 0.00 0.00 0.00 0.00 0.00 0.00 0.00 0.00 0.00 0.00 0.00 0.00 0.01 0.00 0.00 0.00 0.00 0.00 0.00 0.00 0.00 0.00 0.00 0.00 0.00 0.00 0.00 0.00 0.00
0.00 0.00 0.00 0.00 0.00 0.00 0.00 0.00 0.00 0.00 0.00 0.00 0.00 0.00 0.00 0.00 0.00 0.00 0.00 0.00 0.00 0.00 0.00 0.00 0.00 0.00 0.00 0.00 0.00 0.00 0.00 0.00 0.00 0.00 0.00 0.00 0.00 0.00 0.00 0.00 0.00 0.00 0.00
0.00 0.00 0.00 0.00 0.00 0.00 0.00 0.00 0.00 0.00 0.00 0.00 0.00 0.00 0.00 0.00 0.00 0.00 0.00 0.00 0.00 0.00 0.00 0.00 0.00 0.00 0.00 0.00 0.00 0.00 0.00 0.00 0.00 0.00 0.00 0.00 0.00 0.00 0.00 0.00 0.00 0.00 0.00
0.00 0.00 0.00 0.00 0.00 0.00 0.00 0.00 0.00 0.00 0.00 0.00 0.00 0.00 0.00 0.00 0.00 0.00 0.00 0.00 0.00 0.00 0.00 0.00 0.00 0.00 0.00 0.00 0.00 0.00 0.00 0.00 0.00 0.00 0.00 0.00 0.00 0.00 0.00 0.00 0.00 0.00 0.00
0.00 0.00 0.00 0.00 0.00 0.00 0.00 0.00 0.00 0.00 0.00 0.00 0.00 0.00 0.00 0.00 0.00 0.00 0.00 0.00 0.00 0.00 0.00 0.00 0.00 0.00 0.00 0.00 0.00 0.00 0.00 0.00 0.00 0.00 0.00 0.00 0.00 0.00 0.00 0.00 0.00 0.00 0.00
0.00 0.00 0.00 0.00 0.00 0.00 0.00 0.00 0.00 0.00 0.00 0.00 0.00 0.00 0.00 0.00 0.00 0.00 0.00 0.00 0.00 0.00 0.00 0.00 0.00 0.00 0.00 0.00 0.00 0.00 0.00 0.00 0.00 0.00 0.00 0.00 0.00 0.00 0.00 0.00 0.00 0.00 0.00
0.00 0.00 0.00 0.00 0.00 0.00 0.00 0.00 0.00 0.00 0.00 0.00 0.00 0.00 0.00 0.00 0.00 0.00 0.00 0.00 0.00 0.00 0.00 0.00 0.01 0.01 0.00 0.00 0.00 0.00 0.00 0.00 0.00 0.00 0.00 0.00 0.00 0.00 0.00 0.00 0.00 0.00 0.00
0.00 0.00 0.00 0.00 0.00 0.00 0.00 0.00 0.00 0.00 0.00 0.00 0.00 0.00 0.00 0.00 0.00 0.00 0.00 0.00 0.00 0.00 0.00 0.00 0.01 0.01 0.02 0.00 0.00 0.00 0.00 0.00 0.00 0.00 0.00 0.00 0.00 0.00 0.00 0.00 0.00 0.00 0.00
0.00 0.00 0.00 0.00 0.00 0.00 0.00 0.00 0.00 0.00 0.00 0.00 0.00 0.00 0.00 0.00 0.00 0.00 0.00 0.00 0.00 0.00 0.00 0.00 0.00 0.00 0.00 0.00 0.00 0.00 0.00 0.00 0.00 0.00 0.00 0.00 0.00 0.00 0.00 0.00 0.00 0.00 0.00
0.00 0.00 0.00 0.00 0.00 0.00 0.00 0.00 0.00 0.00 0.00 0.00 0.00 0.00 0.00 0.00 0.00 0.00 0.00 0.00 0.00 0.00 0.00 0.00 0.00 0.00 0.00 0.00 0.00 0.00 0.00 0.00 0.00 0.00 0.00 0.00 0.00 0.00 0.00 0.00 0.00 0.00 0.00
0.00 0.00 0.00 0.00 0.00 0.00 0.00 0.00 0.00 0.00 0.00 0.00 0.00 0.00 0.00 0.00 0.00 0.00 0.00 0.00 0.00 0.00 0.00 0.00 0.00 0.00 0.00 0.00 0.00 0.00 0.00 0.00 0.00 0.00 0.00 0.00 0.00 0.00 0.00 0.00 0.00 0.00 0.00
0.00 0.00 0.00 0.00 0.00 0.00 0.00 0.00 0.00 0.00 0.00 0.00 0.00 0.00 0.00 0.00 0.00 0.00 0.00 0.00 0.00 0.00 0.00 0.00 0.00 0.00 0.00 0.00 0.00 0.00 0.00 0.00 0.00 0.00 0.00 0.00 0.00 0.00 0.00 0.00 0.00 0.00 0.00
0.00 0.00 0.00 0.00 0.00 0.00 0.00 0.00 0.00 0.00 0.00 0.00 0.00 0.00 0.00 0.00 0.00 0.00 0.00 0.00 0.00 0.00 0.00 0.00 0.00 0.00 0.00 0.00 0.00 0.00 0.00 0.00 0.00 0.00 0.00 0.00 0.00 0.00 0.00 0.00 0.00 0.00 0.00
0.00 0.00 0.00 0.00 0.00 0.00 0.00 0.01 0.00 0.00 0.00 0.00 0.00 0.00 0.00 0.00 0.00 0.00 0.00 0.00 0.00 0.00 0.00 0.00 0.00 0.00 0.00 0.00 0.00 0.00 0.00 0.00 0.00 0.00 0.00 0.00 0.00 0.00 0.00 0.00 0.00 0.00 0.00
0.00 0.00 0.00 0.00 0.01 0.03 0.04 0.02 0.00 0.00 0.00 0.00 0.00 0.00 0.00 0.00 0.00 0.00 0.00 0.00 0.00 0.00 0.00 0.00 0.00 0.00 0.00 0.00 0.00 0.00 0.00 0.00 0.00 0.00 0.00 0.00 0.00 0.00 0.00 0.00 0.00 0.00 0.00
0.00 0.00 0.01 0.03 0.04 0.02 0.00 0.00 0.00 0.00 0.00 0.00 0.00 0.00 0.00 0.00 0.00 0.00 0.00 0.00 0.00 0.00 0.00 0.00 0.00 0.00 0.00 0.00 0.00 0.00 0.00 0.00 0.00 0.00 0.00 0.00 0.00 0.00 0.00 0.00 0.00 0.00 0.00
0.00 0.01 0.02 0.01 0.00 0.00 0.00 0.00 0.00 0.00 0.00 0.00 0.00 0.00 0.00 0.00 0.00 0.00 0.00 0.00 0.00 0.00 0.00 0.00 0.00 0.00 0.00 0.00 0.00 0.00 0.00 0.00 0.00 0.00 0.00 0.00 0.01 0.00 0.00 0.00 0.00 0.00 0.00
MSLP
1012.42 1013.40 1013.79 1014.23 1014.91 1015.92 1016.68 1017.65 1018.13 1018.73 1018.63 1018.69 1018.97 1019.64 1019.93 1020.61 1021.08 1021.57 1022.29 1022.44 1022.63 1022.62 1022.83 1022.53 1022.43 1022.39 1022.31 1022.47 1022.43 1022.33 1022.23 1021.96 1021.58 1021.06 1021.35 1021.22 1020.78 1019.85 1019.58 1019.37 1019.49 1019.95 1019.99
1012.80 1013.57 1014.15 1014.64 1015.08 1015.98 1016.69 1017.38 1017.98 1018.38 1018.42 1018.77 1019.09 1019.35 1019.82 1020.64 1021.24 1021.78 1022.41 1022.56 1022.85 1022.73 1022.73 1022.96 1022.89 1022.73 1022.73 1022.56 1022.44 1022.30 1022.31 1022.27 1022.06 1021.64 1021.46 1021.09 1020.91 1020.17 1020.15 1020.31 1020.24 1019.98 1020.01
1012.69 1013.69 1014.38 1014.84 1015.42 1016.16 1016.74 1017.17 1017.70 1018.22 1018.64 1019.23 1019.73 1020.16 1020.53 1020.95 1021.00 1021.42 1021.88 1022.53 1023.12 1023.21 1023.17 1023.09 1023.03 1023.00 1022.85 1022.56 1022.53 1022.45 1022.68 1022.58 1022.52 1022.25 1022.16 1021.62 1021.03 1021.00 1021.14 1020.80 1020.57 1020.25 1020.11
1012.49 1013.46 1014.23 1014.89 1015.69 1016.13 1016.72 1017.13 1017.90 1018.76 1019.59 1019.62 1019.96 1020.32 1020.44 1020.76 1022.02 1022.26 1022.56 1022.87 1022.88 1023.03 1023.01 1022.93 1022.98 1022.91 1022.83 1022.72 1022.54 1022.21 1022.87 1023.23 1022.77 1022.66 1022.57 1022.58 1022.30 1021.56 1020.71 1020.99 1020.74 1020.63 1020.45
1012.40 1013.12 1013.84 1014.77 1015.36 1016.22 1016.91 1017.62 1018.62 1019.32 1019.88 1020.22 1020.54 1020.81 1021.32 1021.85 1022.26 1022.77 1023.01 1022.99 1023.13 1023.29 1023.25 1023.11 1023.11 1022.90 1022.81 1022.59 1022.64 1022.71 1023.07 1023.38 1023.29 1023.13 1023.07 1022.96 1022.83 1022.40 1021.89 1021.00 1021.07 1020.86 1020.64
1012.40 1013.13 1013.99 1014.72 1015.90 1016.81 1017.67 1018.49 1019.01 1019.70 1020.31 1020.82 1021.43 1021.88 1022.27 1022.61 1022.75 1023.25 1023.26 1023.33 1023.42 1023.40 1023.38 1023.40 1023.42 1023.16 1022.74 1022.56 1022.45 1022.82 1023.45 1023.90 1023.97 1023.66 1023.35 1023.27 1023.02 1022.69 1022.53 1022.13 1021.73 1021.18 1020.76
1012.50 1013.15 1014.00 1015.00 1016.09 1017.24 1018.09 1018.64 1019.15 1020.07 1020.73 1021.35 1021.90 1022.44 1022.96 1023.29 1023.25 1023.57 1023.62 1023.81 1023.64 1023.55 1023.50 1023.65 1023.35 1022.92 1022.53 1022.52 1023.13 1023.86 1024.23 1024.51 1024.09 1023.73 1023.49 1023.48 1023.31 1023.25 1023.03 1022.66 1021.96 1021.26 1020.85
1012.52 1013.19 1014.08 1014.96 1016.15 1017.27 1018.07 1018.65 1019.36 1020.08 1020.98 1021.61 1022.12 1022.69 1023.01 1023.07 1023.42 1023.80 1024.02 1023.88 1023.85 1023.72 1023.78 1023.55 1023.36 1022.93 1022.98 1023.64 1023.82 1024.17 1024.26 1024.25 1023.98 1023.66 1023.80 1023.63 1023.54 1023.29 1023.00 1022.73 1022.24 1021.41 1021.02
1012.37 1013.04 1013.97 1014.88 1016.01 1017.20 1018.00 1018.59 1019.25 1020.09 1020.99 1021.56 1022.23 1022.82 1023.08 1023.27 1023.72 1023.94 1024.09 1024.01 1023.97 1023.89 1023.63 1023.55 1023.21 1023.23 1023.52 1023.96 1024.06 1023.65 1023.37 1023.06 1023.27 1023.58 1023.57 1023.53 1023.36 1023.18 1022.88 1022.60 1022.33 1021.83 1021.03
1012.12 1012.88 1013.73 1014.71 1015.84 1017.08 1018.02 1018.61 1019.21 1020.09 1020.89 1021.65 1022.28 1022.59 1022.94 1023.29 1023.64 1023.82 1023.96 1024.04 1024.07 1024.00 1023.74 1023.48 1023.08 1023.02 1023.09 1023.53 1023.23 1022.99 1023.01 1023.29 1023.09 1023.22 1023.44 1023.34 1023.19 1023.07 1022.81 1022.47 1022.25 1021.78 1021.22
1011.56 1012.57 1013.50 1014.78 1016.00 1017.04 1017.87 1018.65 1019.16 1019.95 1020.81 1021.37 1021.84 1022.41 1022.56 1023.11 1023.47 1023.57 1023.77 1023.89 1024.00 1023.78 1023.60 1023.42 1023.27 1023.00 1022.90 1022.79 1022.76 1022.84 1022.91 1022.73 1022.84 1023.16 1023.29 1023.14 1023.04 1022.98 1022.81 1022.40 1022.01 1021.49 1021.02
1011.08 1012.17 1013.61 1014.90 1015.90 1016.88 1017.85 1018.41 1018.96 1019.77 1020.43 1020.84 1021.59 1021.94 1022.39 1022.81 1022.99 1023.19 1023.46 1023.66 1023.68 1023.57 1023.42 1023.30 1023.17 1022.90 1022.70 1022.67 1022.65 1022.61 1022.51 1022.68 1022.79 1022.97 1022.96 1023.03 1023.00 1022.85 1022.51 1022.17 1021.78 1021.44 1021.17
1010.54 1011.71 1013.26 1014.61 1015.62 1016.63 1017.50 1018.11 1018.84 1019.29 1019.98 1020.74 1021.01 1021.38 1021.86 1022.35 1022.58 1022.92 1023.17 1023.29 1023.31 1023.27 1023.17 1022.98 1022.78 1022.67 1022.95 1022.89 1022.79 1022.63 1022.68 1022.87 1023.02 1022.94 1023.11 1023.04 1022.91 1022.61 1022.47 1022.34 1022.12 1022.00 1021.54
1010.16 1011.37 1012.78 1014.24 1015.25 1016.21 1017.14 1017.82 1018.45 1019.04 1019.81 1020.04 1020.28 1020.67 1021.48 1021.86 1022.26 1022.58 1022.80 1022.90 1022.96 1022.86 1022.64 1022.33 1022.42 1022.55 1022.65 1022.77 1022.78 1022.77 1022.89 1022.93 1023.03 1023.26 1023.03 1022.96 1022.99 1023.07 1023.47 1023.44 1023.05 1022.47 1022.05
1010.20 1011.22 1012.68 1013.88 1014.90 1015.83 1016.72 1017.34 1017.92 1018.86 1019.47 1019.71 1019.93 1020.41 1021.11 1021.68 1021.99 1022.22 1022.38 1022.49 1022.63 1022.43 1022.18 1021.94 1022.20 1022.46 1022.58 1022.79 1023.64 1023.65 1023.36 1023.05 1022.97 1022.97 1022.86 1022.86 1023.29 1023.89 1024.19 1024.09 1023.56 1023.17 1022.63
1010.16 1011.33 1012.51 1013.52 1014.43 1015.23 1016.09 1016.83 1017.67 1018.58 1019.20 1019.61 1019.95 1020.33 1020.78 1021.21 1021.60 1021.89 1022.06 1022.13 1021.98 1021.82 1021.62 1021.51 1021.75 1022.15 1022.58 1023.71 1024.31 1024.53 1023.94 1023.35 1022.96 1022.79 1022.86 1022.85 1022.93 1023.04 1023.54 1023.42 1023.60 1023.41 1022.78
1010.20 1011.10 1012.01 1013.01 1013.85 1014.66 1015.78 1016.57 1017.51 1018.31 1018.94 1019.38 1019.86 1020.31 1020.64 1020.90 1021.27 1021.41 1021.35 1021.32 1021.31 1021.32 1021.19 1021.11 1021.32 1021.78 1022.44 1023.71 1024.46 1024.76 1024.26 1023.46 1023.08 1022.95 1022.92 1022.81 1022.70 1022.90 1022.72 1022.89 1022.83 1022.26 1021.68
1010.13 1010.84 1011.69 1012.68 1013.39 1014.38 1015.46 1016.44 1017.37 1018.03 1018.65 1019.24 1019.71 1020.26 1020.34 1020.60 1020.77 1020.80 1020.69 1020.68 1020.83 1020.77 1020.73 1020.74 1021.11 1021.64 1022.79 1023.59 1024.26 1024.66 1024.05 1023.36 1023.10 1023.06 1022.96 1022.88 1022.93 1023.41 1023.72 1023.36 1022.69 1021.86 1021.02
1010.03 1010.61 1011.41 1012.23 1013.14 1014.12 1015.35 1016.47 1017.02 1017.75 1018.78 1019.70 1019.92 1020.00 1020.11 1020.16 1020.27 1020.24 1020.15 1020.21 1020.25 1020.31 1020.33 1020.47 1020.73 1021.20 1022.41 1023.34 1024.05 1024.48 1023.72 1023.27 1023.24 1023.06 1022.81 1022.96 1023.27 1023.70 1023.91 1023.42 1022.60 1021.75 1020.85
1010.02 1010.55 1011.11 1012.02 1012.98 1014.19 1015.24 1016.05 1016.71 1017.75 1018.50 1019.01 1019.82 1020.17 1020.25 1020.17 1020.10 1020.03 1019.89 1019.80 1019.77 1019.70 1019.87 1020.30 1020.85 1021.49 1022.11 1023.30 1023.86 1024.18 1023.70 1023.35 1023.19 1022.94 1022.62 1022.83 1023.50 1023.80 1023.69 1023.36 1022.77 1021.98 1021.06
1010.22 1010.67 1011.29 1012.09 1013.12 1014.29 1015.55 1016.75 1017.74 1018.13 1018.81 1019.42 1020.03 1020.19 1020.12 1020.23 1020.05 1020.06 1019.92 1019.82 1019.48 1019.37 1019.63 1020.72 1021.15 1021.54 1022.37 1022.99 1023.60 1024.02 1023.96 1023.50 1023.30 1022.98 1022.65 1022.57 1023.10 1023.32 1023.31 1023.13 1022.70 1022.21 1021.94
1010.74 1011.60 1012.40 1013.54 1014.56 1015.87 1017.09 1017.71 1018.25 1019.00 1019.86 1020.01 1019.74 1020.03 1020.11 1020.18 1020.06 1019.96 1019.70 1019.79 1019.53 1019.40 1019.86 1020.57 1021.11 1021.35 1021.93 1022.56 1023.17 1023.49 1023.93 1023.85 1023.65 1023.20 1022.79 1022.76 1023.05 1023.07 1022.84 1022.57 1022.15 1022.02 1021.60
1012.18 1013.14 1014.20 1015.61 1016.77 1017.76 1018.40 1019.13 1019.85 1020.00 1019.93 1020.20 1020.09 1020.20 1020.36 1020.46 1020.32 1019.91 1019.48 1019.21 1019.00 1019.47 1019.94 1020.41 1020.74 1020.77 1020.94 1021.76 1022.34 1022.87 1023.28 1023.61 1023.57 1023.07 1022.83 1022.93 1022.66 1022.35 1021.87 1021.50 1021.55 1021.39 1020.59
1013.72 1014.94 1016.21 1017.57 1018.77 1019.21 1019.69 1020.26 1020.20 1020.46 1020.75 1020.80 1020.48 1020.56 1020.62 1020.45 1020.53 1020.13 1019.57 1019.09 1019.04 1019.35 1019.83 1020.12 1020.25 1020.19 1020.15 1020.50 1021.30 1022.18 1022.59 1022.95 1022.94 1022.42 1022.27 1022.26 1021.94 1021.58 1021.33 1021.10 1020.54 1020.52 1020.30
1016.80 1017.57 1018.79 1019.29 1019.45 1019.64 1019.96 1020.52 1020.80 1020.79 1020.81 1020.81 1020.63 1020.54 1020.48 1020.25 1019.93 1019.89 1019.89 1019.60 1019.09 1019.31 1019.63 1019.62 1019.72 1019.90 1020.43 1020.61 1020.89 1021.24 1021.57 1021.85 1022.06 1022.28 1022.12 1021.50 1021.04 1020.84 1020.60 1020.30 1020.13 1020.03 1019.94
1019.09 1019.48 1019.88 1019.98 1020.03 1020.13 1020.25 1020.53 1020.78 1020.97 1020.91 1020.64 1020.56 1020.38 1020.21 1020.03 1019.70 1019.58 1019.76 1019.83 1019.48 1019.42 1019.67 1019.74 1019.84 1019.99 1020.30 1020.64 1020.90 1021.09 1021.35 1021.67 1021.93 1021.90 1021.45 1020.94 1020.75 1020.57 1020.29 1019.94 1019.77 1019.67 1019.61
Thickness
5674 5668 5667 5666 5660 5651 5644 5635 5630 5625 5625 5621 5616 5607 5601 5593 5585 5577 5570 5566 5561 5556 5548 5544 5540 5536 5533 5526 5522 5519 5517 5515 5514 5513 5508 5507 5505 5507 5503 5500 5494 5487 5483
5666 5663 5660 5658 5654 5646 5640 5634 5629 5625 5623 5617 5611 5606 5598 5588 5581 5573 5564 5555 5547 5542 5537 5531 5527 5522 5517 5514 5511 5507 5503 5500 5497 5493 5489 5490 5490 5489 5481 5472 5467 5461 5456
5664 5657 5654 5652 5649 5641 5636 5632 5626 5621 5616 5608 5601 5594 5587 5581 5576 5568 5559 5548 5538 5531 5526 5521 5516 5512 5507 5504 5498 5493 5488 5483 5478 5475 5469 5466 5464 5458 5452 5448 5442 5435 5427
5667 5659 5653 5649 5642 5639 5634 5629 5621 5612 5603 5601 5594 5587 5582 5574 5559 5551 5543 5535 5530 5524 5518 5513 5506 5501 5495 5490 5486 5482 5471 5463 5460 5453 5445 5436 5430 5427 5430 5417 5409 5401 5394
5664 5658 5654 5647 5644 5636 5628 5622 5612 5604 5597 5592 5586 5578 5568 5559 5550 5540 5532 5527 5520 5512 5506 5501 5495 5489 5483 5478 5471 5464 5454 5443 5436 5428 5418 5410 5403 5397 5389 5391 5377 5366 5356
5661 5656 5651 5645 5634 5628 5619 5610 5604 5596 5589 5580 5571 5561 5551 5543 5536 5527 5521 5514 5508 5502 5495 5488 5480 5474 5470 5464 5456 5446 5434 5422 5412 5405 5395 5382 5371 5361 5348 5339 5336 5332 5331
5655 5651 5644 5636 5628 5618 5610 5605 5598 5587 5579 5569 5559 5548 5538 5529 5524 5515 5509 5502 5496 5490 5483 5474 5469 5464 5459 5451 5439 5424 5411 5397 5388 5377 5365 5352 5339 5326 5318 5310 5312 5314 5313
5652 5647 5641 5634 5623 5614 5606 5599 5590 5581 5569 5558 5549 5539 5531 5525 5516 5506 5498 5491 5483 5476 5469 5463 5456 5452 5443 5429 5418 5405 5392 5379 5367 5355 5339 5328 5314 5305 5298 5293 5293 5299 5300
5649 5645 5638 5631 5621 5609 5600 5592 5584 5573 5560 5550 5539 5529 5522 5514 5503 5494 5485 5478 5470 5462 5456 5449 5444 5437 5425 5411 5398 5389 5380 5369 5352 5333 5318 5307 5297 5290 5287 5284 5282 5282 5286
5648 5642 5636 5627 5617 5604 5594 5584 5576 5564 5553 5541 5531 5522 5513 5503 5493 5484 5475 5465 5457 5449 5443 5437 5430 5422 5412 5397 5389 5378 5362 5344 5330 5314 5300 5291 5284 5280 5277 5275 5274 5274 5274
5648 5640 5633 5621 5608 5597 5586 5575 5567 5556 5543 5533 5523 5511 5504 5493 5482 5474 5464 5455 5445 5439 5432 5424 5416 5408 5398 5386 5374 5360 5342 5327 5312 5298 5286 5279 5274 5269 5267 5267 5266 5267 5266
5648 5638 5625 5612 5601 5589 5577 5568 5560 5547 5536 5526 5513 5504 5493 5483 5474 5465 5454 5444 5435 5427 5420 5412 5404 5395 5384 5370 5358 5343 5328 5310 5296 5284 5276 5269 5264 5261 5260 5260 5258 5257 5254
5646 5635 5620 5605 5593 5581 5570 5561 5550 5540 5528 5515 5506 5496 5486 5474 5465 5454 5443 5434 5426 5418 5409 5401 5392 5381 5365 5352 5338 5322 5307 5293 5280 5273 5265 5260 5257 5256 5253 5250 5246 5242 5241
5641 5629 5614 5599 5587 5575 5562 5552 5541 5530 5517 5509 5500 5489 5476 5465 5455 5444 5434 5425 5416 5408 5400 5392 5380 5367 5355 5338 5321 5306 5292 5280 5269 5260 5257 5253 5249 5245 5237 5231 5229 5228 5226
5631 5621 5604 5591 5579 5567 5554 5544 5535 5520 5509 5499 5491 5480 5468 5455 5445 5435 5424 5416 5406 5397 5389 5381 5367 5351 5339 5325 5301 5285 5275 5267 5261 5254 5250 5245 5238 5230 5223 5218 5215 5212 5211
5622 5609 5596 5584 5571 5560 5548 5538 5525 5511 5500 5489 5479 5469 5458 5447 5435 5424 5414 5405 5397 5388 5379 5369 5354 5339 5322 5299 5282 5266 5259 5255 5252 5248 5242 5237 5231 5226 5218 5214 5207 5202 5200
5610 5599 5588 5576 5565 5554 5541 5528 5514 5502 5490 5480 5469 5457 5447 5438 5426 5416 5406 5397 5389 5379 5368 5358 5344 5329 5314 5282 5266 5253 5248 5247 5243 5238 5234 5230 5225 5219 5215 5208 5203 5201 5200
5600 5591 5581 5568 5559 5547 5532 5518 5504 5493 5482 5470 5458 5448 5439 5428 5417 5407 5398 5388 5376 5367 5356 5345 5331 5316 5299 5273 5257 5244 5241 5240 5235 5230 5227 5223 5217 5209 5201 5198 5196 5196 5196
5592 5583 5573 5562 5550 5538 5522 5507 5496 5484 5469 5453 5445 5438 5427 5417 5407 5398 5388 5377 5366 5356 5344 5331 5318 5304 5284 5263 5248 5238 5238 5235 5228 5224 5221 5216 5207 5200 5193 5190 5189 5189 5190
5582 5573 5565 5554 5542 5527 5513 5500 5487 5471 5458 5448 5434 5422 5411 5402 5393 5384 5375 5366 5356 5347 5335 5317 5306 5287 5273 5256 5242 5232 5231 5227 5223 5219 5216 5211 5201 5192 5186 5183 5182 5181 5183
5572 5565 5556 5544 5531 5516 5500 5482 5467 5457 5443 5432 5419 5408 5400 5388 5379 5367 5359 5350 5344 5334 5322 5302 5290 5277 5262 5250 5236 5227 5222 5220 5216 5214 5211 5205 5196 5188 5182 5178 5176 5175 5171
5559 5549 5537 5521 5509 5492 5475 5462 5450 5436 5422 5413 5407 5396 5386 5373 5363 5354 5348 5337 5329 5319 5307 5290 5277 5268 5257 5242 5231 5224 5215 5211 5209 5206 5204 5198 5191 5185 5181 5177 5175 5170 5168
5538 5525 5510 5492 5476 5464 5452 5439 5425 5418 5412 5401 5390 5379 5366 5354 5347 5343 5337 5328 5320 5309 5295 5281 5270 5261 5253 5244 5232 5222 5215 5208 5204 5202 5198 5192 5188 5185 5183 5181 5175 5170 5173
5517 5501 5484 5466 5447 5436 5426 5416 5411 5401 5389 5378 5372 5360 5349 5342 5331 5325 5321 5317 5310 5298 5284 5274 5264 5257 5251 5244 5234 5223 5215 5207 5202 5201 5197 5191 5188 5185 5181 5178 5179 5174 5171
5476 5465 5447 5437 5430 5423 5415 5402 5391 5382 5373 5362 5355 5347 5338 5332 5326 5315 5306 5300 5297 5287 5277 5270 5261 5253 5241 5236 5229 5223 5217 5210 5204 5196 5192 5193 5191 5187 5183 5180 5177 5174 5170
5443 5433 5425 5419 5413 5405 5397 5387 5377 5365 5358 5353 5345 5337 5329 5320 5314 5308 5297 5289 5283 5275 5266 5257 5250 5244 5236 5229 5223 5218 5211 5204 5197 5193 5193 5192 5188 5184 5181 5179 5175 5173 5170